sat.trackr.live / text

‹ back to catalog

STARLINK-1451

NORAD 45668 · 2020-035M

PAYLOAD ACTIVE UNKNOWN

§ Identity

Operator
Country
US
Launch date
2020-06-04
Launch site
AFETR
Launch vehicle
Mass (kg)
RCS (m²)

Purposes: comms

External: N2YO · Heavens-Above · Gunter

§ Orbital elements

Epoch: 2026-09-09T15:00:58.051296Z

Period
94.85 min
Inclination
53.0494°
Eccentricity
0.0001581
Mean motion
15.18170953 rev/d
Perigee alt
510.3 km
Apogee alt
512.5 km
Semi-major
6,889.5 km
B*
7.7270e-4
RAAN
310.1765°
Arg perigee
48.1097°
Mean anomaly
312.0032°
Rev number
34,661

§ Raw data

STARLINK-14511 45668U 20035M   26252.62567189  .00015701  00000+0  77270-3 0  99992 45668  53.0494 310.1765 0001581  48.1097 312.0032 15.18170953346614

JSON: /api/v1/satellites/45668 · /tle

For live sub-satellite position, see the globe view (requires WebGL).

§ Visibility from observer

Set your observer location to see the next 7 days of passes ≥ 10°. The values pass through the URL so the page stays shareable.

No JS? Fill the form by hand. The geolocation button needs JavaScript.